Regional Weather Roundup
Issued by NWS

Home | Current Version | Previous Version | Text Only | Print | Product List | Glossary On
Versions: 1 2 3 4 5 6 7 8 9 10 11 12 13 14 15 16 17 18 19 20 21 22 23 24 25 26 27
000
ASUS45 KBOU 152306
RWRCO

WEATHER ROUNDUP FOR COLORADO
NATIONAL WEATHER SERVICE DENVER/BOULDER CO
500 PM MDT TUE APR 15 2014

NOTE: "FAIR" INDICATES FEW OR NO CLOUDS BELOW 12000 FEET WITH NO
SIGNIFICANT WEATHER AND/OR OBSTRUCTIONS TO VISIBILITY.

COZ001>005-013-030-031-160000-
...NORTHWEST COLORADO...

CITY           SKY/WX    TMP DP  RH WIND       PRES   REMARKS
CRAIG          MOSUNNY   57  19  22 SW23G30   29.83F
HAYDEN         MOSUNNY   54  19  26 SW17G31   29.86F
MEEKER         SUNNY     58  18  21 SW20G29   29.85F
MOUNT WERNER   MOSUNNY   36  10  35 SW17G25   29.97F
STEAMBOAT SPGS MOSUNNY   53  11  18 SW10      29.86F
WALDEN         MOSUNNY   43  19  39 S14G20    29.87F
$$

COZ006>008-011-160000-
...WEST CENTRAL VALLEYS...

CITY           SKY/WX    TMP DP  RH WIND       PRES   REMARKS
GRAND JUNCTION PTSUNNY   58  22  24 NW9       29.88F
MONTROSE       CLOUDY    62  10  13 SW10G21   29.91F
EAGLE          MOSUNNY   55  14  19 W18G31    29.89F
RIFLE          MOSUNNY   61  16  17 W22G31    29.87F
DELTA          CLOUDY    63  17  16 CALM      29.89F
NUCLA            N/A     61  10  13 SW12G17   29.96F
$$

COZ017>023-064>068-160000-
...SOUTHWEST COLORADO...

CITY           SKY/WX    TMP DP  RH WIND       PRES   REMARKS
DURANGO        CLOUDY    58  -2   8 W18G24    29.97F
CORTEZ         SUNNY     60   4  10 NW12      29.97F
PAGOSA SPRINGS CLOUDY    54   0  11 W15G24    30.00S
TELLURIDE      CLOUDY    46   9  21 W3        30.03F
WOLF CREEK PAS CLOUDY    32  10  40 SW21G39   30.11F WCI  20
$$

COZ009-010-012-014-032>034-037-058>063-160000-
...CENTRAL COLORADO...

CITY           SKY/WX    TMP DP  RH WIND       PRES   REMARKS
ASPEN          PTSUNNY   51  11  20 W5G18     29.93F
BUENA VISTA    CLOUDY    53   1  12 W9G29     29.91F
COPPER MTN     PTSUNNY   34   7  32 W26G38    30.01F HAZE    WCI  21
BERTHOUD PASS  FAIR      27  18  69 NW31G37   29.99F WCI  10
COTTONWOOD PAS CLOUDY    45 -15   8 NW15G40   29.95R
GUNNISON       CLOUDY    50   9  18 W9G21     30.00F
KREMMLING      MOSUNNY   54  10  17 SW17G24   29.88F
LEADVILLE      PTSUNNY   38   5  25 W15G24    29.97F
SALIDA         CLOUDY    58   5  12 W13G23    29.99S
SUNLIGHT       PTSUNNY   37  21  52 CALM      30.02F
WILKERSON PASS PTSUNNY   36   5  27 SW12G24   29.98F
$$

COZ069>075-160000-
...SAN LUIS VALLEY/SANGRE DE CRISTO MOUNTAINS...

CITY           SKY/WX    TMP DP  RH WIND       PRES   REMARKS
ALAMOSA        PTSUNNY   60  13  15 MISG      29.88F
LA VETA PASS   MOSUNNY   45  12  26 SW12G23   29.98F
SAGUACHE       PTSUNNY   54   5  14 NW25G37   29.93F
$$

COZ035-036-038>040-160000-
...NORTHERN COLORADO FRONT RANGE...

CITY           SKY/WX    TMP DP  RH WIND       PRES   REMARKS
DENVER INTL AP PTSUNNY   64  11  12 VRB3      29.73F
DMNS CITY PARK   N/A     62   9  12 W8G17     29.71F
AURORA         PTSUNNY   63  14  15 W9        29.74F
FRONT RANGE AP MOSUNNY   64  25  22 E5        29.75
ERIE MUNI ARPT PTSUNNY   65  13  13 NW6       29.72F
BOULDER MUN AP PTSUNNY   63  18  17 NE9G16    29.71F
CENTENNIAL     PTSUNNY   61  13  15 CALM      29.75F
BROOMFIELD     PTSUNNY   64  14  14 W9G17     29.76F
FORT COLLINS   SUNNY     64  23  20 W8G22     29.71F
LONGMONT       SUNNY     67  16  14 W14G28    29.73F
$$

COZ041-046-047-076>085-087-088-160000-
...PIKES PEAK/PALMER DIVIDE AND SOUTHERN FOOTHILLS...

CITY           SKY/WX    TMP DP  RH WIND       PRES   REMARKS
COLO. SPRINGS  PTSUNNY   63  15  15 S18       29.78F
A. F. ACADEMY  PTSUNNY   60  17  18 VRB1      29.78F
ELLICOTT       NOT AVBL
FALCON         PTSUNNY   59  15  18 S13       29.82F
FORT CARSON    CLOUDY    64  15  15 SW17G25   29.75F
LIMON          PTSUNNY   60  21  22 S17G23    29.77F
MONUMENT HILL  PTSUNNY   57  18  21 W10G16    29.78F
TRINIDAD       PTSUNNY   65  20  17 NE7       29.81F
$$

COZ042>045-048>051-090-091-160000-
...NORTHEAST COLORADO...

CITY           SKY/WX    TMP DP  RH WIND       PRES   REMARKS
GREELEY ARPT   SUNNY     64  25  22 S9        29.71F
AKRON          MOSUNNY   60  29  30 S18G24    29.73F
BURLINGTON     CLOUDY    64  14  14 SW21G26   29.78F
WRAY           MOSUNNY   69  19  15 S14       29.72F
STERLING       MOSUNNY   68  25  19 NW6       29.69F
HOLYOKE        MOSUNNY   64  27  24 S18       29.71F
FORT MORGAN    MOSUNNY   65  17  15 S9        29.72F
$$

COZ086-089-092>099-160000-
...SOUTHEAST COLORADO...

CITY           SKY/WX    TMP DP  RH WIND       PRES   REMARKS
PUEBLO         PTSUNNY   70  17  13 SW14      29.74F
LA JUNTA       PTSUNNY   70  15  12 S14       29.75F
LAMAR          PTSUNNY   69  18  14 S8G20     29.76F
SPRINGFIELD    NOT AVBL
$$



USA.gov is the U.S. government's official web portal to all federal, state and local government web resources and services.